Starlink 2533

operational
NORAD ID: 48294 Int'l Des: 2021-036 Owner: SPXS Country: US Constellation: starlink
LEOCIRCULARSTARLINK_TYPE

Starlink 2533について

説明を読み込み中...

リアルタイム位置

3D地球を読み込み中...

次回通過

高度履歴

Altitude vs Time

uPlot chart will show altitude changes over time

軌道要素

1 48294U 21036U 25306.23826749 .00002092 00000-0 15930-3 0 9990
2 48294 53.0544 293.7728 0001611 90.6419 269.4754 15.06400947249105
Epoch: Nov 2, 2025 • Age: 33 hours

現在のステータス

高度 547.5 km
速度 7.59 km/s
衛星直下点 24.75°N, 168.89°W
打ち上げ日 Apr 29, 2021
運用期間 4.5 years
タイプ internet

技術仕様

分類 Payload
質量 260.00 kg
乾燥質量 248.00 kg
総質量 260.00 kg
長さ 0.20 m
直径 2.80 m
スパン 9.00 m
形状 Box + pan
製造者 SPXS
バスタイプ Starlink
フェーズステータス In Orbit
所有者/国 SPXS/US

大規模コンステレーション

Loading constellations...